DW9936 Weather Reports


Display with metric or nautical units.
time (UTC)temp
F
wind
direction
speed
MPH
gust
MPH
rain 1hr
in
rain 24hr
in
rain mn
in
humidity
%
barometer
mb
20260508220033 57 65 0.0 0.0 0.00 0.00 0.00 72 1018.5
20260508214537 58 66 0.0 1.0 0.00 0.00 0.00 71 1018.4
20260508213032 58 65 0.0 3.0 0.00 0.00 0.00 70 1018.3
20260508211526 59 87 0.0 2.0 0.00 0.00 0.00 68 1018.2
20260508210023 59 89 0.0 1.0 0.00 0.00 0.00 66 1018.0
20260508204523 60 142 0.0 7.0 0.00 0.00 0.00 64 1017.9
20260508203021 60 98 0.0 3.0 0.00 0.00 0.00 62 1017.6
20260508201520 61 92 0.0 3.0 0.00 0.00 0.00 60 1017.5
20260508200035 61 211 0.0 2.0 0.00 0.00 0.00 58 1017.4
20260508194518 60 297 0.0 1.0 0.00 0.00 0.00 58 1017.2
20260508193019 60 57 0.0 1.0 0.00 0.00 0.00 58 1017.0
20260508191518 61 63 0.0 0.0 0.00 0.00 0.00 57 1016.7
20260508190019 61 63 0.0 0.0 0.00 0.00 0.00 56 1016.5
20260508184524 62 63 0.0 1.0 0.00 0.00 0.00 54 1016.4
20260508183015 63 267 0.0 0.0 0.00 0.00 0.00 53 1016.1
20260508181515 64 267 0.0 0.0 0.00 0.00 0.00 51 1015.8
20260508180014 65 267 0.0 2.0 0.00 0.00 0.00 49 1015.6
20260508174514 66 49 0.0 2.0 0.00 0.00 0.00 47 1015.4
20260508173017 67 67 1.0 4.0 0.00 0.00 0.00 46 1015.3
20260508171528 68 169 0.0 2.0 0.00 0.00 0.00 44 1015.1
20260508170012 69 86 0.0 3.0 0.00 0.00 0.00 44 1015.0
20260508164512 69 5 0.0 1.0 0.00 0.00 0.00 43 1014.9
20260508163011 70 121 0.0 1.0 0.00 0.00 0.00 43 1015.0
20260508161517 70 101 0.0 2.0 0.00 0.00 0.00 42 1015.0
20260508160010 70 128 0.0 2.0 0.00 0.00 0.00 42 1015.0
20260508154510 71 103 0.0 2.0 0.00 0.00 0.00 42 1015.0
20260508153010 72 188 0.0 2.0 0.00 0.00 0.00 41 1014.9
20260508151509 72 169 0.0 2.0 0.00 0.00 0.00 42 1015.0
20260508150018 72 349 0.0 1.0 0.00 0.00 0.00 42 1015.1
20260508144514 73 51 0.0 1.0 0.00 0.00 0.00 40 1015.1
20260508143022 73 348 0.0 3.0 0.00 0.00 0.00 42 1015.2
20260508141507 73 303 0.0 6.0 0.00 0.00 0.00 39 1015.3
20260508140002 74 60 0.0 3.0 0.00 0.00 0.00 41 1015.4
20260508134604 73 234 0.0 5.0 0.00 0.00 0.00 42 1015.4
20260508133058 73 336 0.0 2.0 0.00 0.00 0.00 42 1015.6
20260508131558 72 76 0.0 5.0 0.00 0.00 0.00 43 1015.7
20260508130053 70 322 0.0 5.0 0.00 0.00 0.00 45 1015.9
20260508124559 69 309 0.0 8.0 0.00 0.00 0.00 45 1016.1
20260508123052 69 300 0.0 3.0 0.00 0.00 0.00 45 1016.1
20260508121551 70 344 0.0 3.0 0.00 0.00 0.00 45 1016.1
20260508120049 71 311 0.0 5.0 0.00 0.00 0.00 44 1016.1
20260508114547 70 315 1.0 6.0 0.00 0.00 0.00 44 1016.1
20260508113110 69 231 0.0 4.0 0.00 0.00 0.00 46 1016.3
20260508111544 68 321 0.0 5.0 0.00 0.00 0.00 49 1016.5
20260508110043 68 328 1.0 3.0 0.00 0.00 0.00 46 1016.5
20260508104553 68 82 0.0 3.0 0.00 0.00 0.00 46 1016.6
20260508103041 67 67 0.0 1.0 0.00 0.00 0.00 51 1016.7
20260508101543 66 330 0.0 4.0 0.00 0.00 0.00 50 1016.8
20260508100041 65 340 0.0 3.0 0.00 0.00 0.00 50 1017.0
20260508094539 67 145 0.0 2.0 0.00 0.00 0.00 49 1017.0
20260508093038 68 188 0.0 3.0 0.00 0.00 0.00 50 1017.0
20260508091534 66 35 0.0 4.0 0.00 0.00 0.00 51 1017.2
20260508090042 66 311 1.0 4.0 0.00 0.00 0.00 50 1017.3
20260508084530 65 100 0.0 5.0 0.00 0.00 0.00 53 1017.3
20260508083037 64 150 0.0 4.0 0.00 0.00 0.00 55 1017.3
20260508081529 63 331 0.0 5.0 0.00 0.00 0.00 55 1017.3
20260508080026 64 18 0.0 2.0 0.00 0.00 0.00 57 1017.3
20260508074523 62 336 0.0 2.0 0.00 0.00 0.00 60 1017.3
20260508073026 63 300 1.0 4.0 0.00 0.00 0.00 59 1017.3
20260508071518 61 87 0.0 2.0 0.00 0.00 0.00 65 1017.3
20260508070016 60 125 0.0 3.0 0.00 0.00 0.00 64 1017.5
20260508064543 59 128 0.0 2.0 0.00 0.00 0.00 66 1017.5
20260508063015 58 144 0.0 3.0 0.00 0.00 0.00 67 1017.5
20260508061507 58 147 0.0 2.0 0.00 0.00 0.00 69 1017.4
20260508060004 57 86 0.0 0.0 0.00 0.00 0.00 71 1017.3
20260508054626 55 86 0.0 0.0 0.00 0.00 0.00 76 1017.3
20260508053110 52 86 0.0 1.0 0.00 0.00 0.00 80 1017.3
20260508051559 51 78 0.0 0.0 0.00 0.00 0.00 82 1017.3
20260508050054 50 329 0.0 0.0 0.00 0.00 0.00 84 1017.2
20260508044549 48 327 0.0 0.0 0.00 0.00 0.00 85 1017.1
20260508043051 47 327 0.0 1.0 0.00 0.00 0.00 85 1016.9
20260508041545 47 328 0.0 1.0 0.00 0.00 0.00 85 1016.8
20260508040050 46 332 0.0 0.0 0.00 0.00 0.00 86 1016.7
20260508034543 46 333 0.0 0.0 0.00 0.00 0.00 85 1016.6
20260508033038 46 333 0.0 0.0 0.00 0.00 0.00 85 1016.6
20260508031549 46 333 0.0 0.0 0.00 0.00 0.00 85 1016.5
20260508030035 46 333 0.0 0.0 0.00 0.00 0.00 84 1016.4
20260508024534 47 333 0.0 0.0 0.00 0.00 0.00 84 1016.4
20260508023033 47 333 0.0 0.0 0.00 0.00 0.00 83 1016.4
20260508021530 47 333 0.0 0.0 0.00 0.00 0.00 81 1016.2
20260508020027 48 333 0.0 1.0 0.00 0.00 0.00 81 1016.1
20260508014525 49 333 0.0 0.0 0.00 0.00 0.00 80 1016.2
20260508013026 49 333 0.0 0.0 0.00 0.00 0.00 79 1016.2
20260508011524 50 333 0.0 0.0 0.00 0.00 0.00 79 1015.8
20260508010026 50 315 0.0 0.0 0.00 0.00 0.00 78 1015.8
20260508004531 50 323 0.0 0.0 0.00 0.00 0.00 79 1015.8
20260508003018 50 324 0.0 0.0 0.00 0.00 0.00 77 1015.9
20260508001515 51 324 0.0 0.0 0.00 0.00 0.00 76 1015.8
20260508000012 52 324 0.0 0.0 0.00 0.00 0.00 74 1015.8
20260507234515 53 324 0.0 0.0 0.00 0.00 0.00 73 1015.9
20260507233012 54 324 0.0 0.0 0.00 0.00 0.00 72 1016.0
20260507231503 54 324 0.0 0.0 0.00 0.00 0.00 70 1016.0
20260507230104 55 331 0.0 0.0 0.00 0.00 0.00 69 1015.9
20260507224558 56 331 0.0 0.0 0.00 0.00 0.00 68 1015.8
20260507223055 57 331 0.0 0.0 0.00 0.00 0.00 68 1015.6
20260507221558 57 331 0.0 0.0 0.00 0.00 0.00 66 1015.5